Weather History for Fort Madison, IA

Change the Weather History Date:

Monday, January 28, 2013

  Actual Average Record
Temperature  
Mean Temperature 48 °F -  
Max Temperature 53 °F 33 °F 60 °F (1968)
Min Temperature 42 °F 13 °F -20 °F (1963)
Degree Days  
Heating Degree Days 18    
Moisture  
Dew Point 47 °F    
Average Humidity 100    
Maximum Humidity 100    
Minimum Humidity 100    
Precipitation  
Precipitation 0.00 in - - ()
Sea Level Pressure  
Sea Level Pressure 29.84 in    
Wind  
Wind Speed 9 mph (SE)    
Max Wind Speed 15 mph    
Max Gust Speed 21 mph    
Visibility 3 miles    
Events Fog , Rain    
Averages and records for this station are not official NWS values.
T = Trace of Precipitation, MM = Missing Value Source: NWS Daily Summary

Daily Weather History Graph

Daily Weather History Graph

Search for Another Location

Airport:

Trip Planner

Search our weather history database for the weather conditions in past years. The results will help you decide how hot, cold, wet, or windy it might be!

Date:

Astronomy

Jan. 28, 2013 Rise Set
Actual Time 7:18 AM CST 5:18 PM CST
Civil Twilight 6:49 AM CST 5:47 PM CST
Nautical Twilight 6:16 AM CST 6:20 PM CST
Astronomical Twilight 5:44 AM CST 6:52 PM CST
Moon 7:14 PM CST (1/28) 7:43 AM CST (1/28)
Length of Visible Light 10h 58m
Length of Day
9h 59m
Full, 98% of the Moon is Illuminated
Jan 28
Full
Feb 3
Last Quarter
Feb 10
New
Feb 17
First Quarter
Feb 25
Full

Hourly Weather History & Observations

Time (CST) Temp. Windchill Dew Point Humidity Pressure Visibility Wind Dir Wind Speed Gust Speed Precip Events Conditions
12:15 AM 42.8 °F 37.0 °F 42.8 °F 100% 29.83 in 4.0 mi South 10.4 mph - N/A   Overcast
12:35 AM 44.6 °F 38.4 °F 44.6 °F 100% 29.83 in 5.0 mi South 12.7 mph - N/A   Overcast
12:55 AM 46.4 °F 40.7 °F 46.4 °F 100% 29.83 in 7.0 mi South 12.7 mph - N/A   Overcast
1:15 AM 48.2 °F - 48.2 °F 100% 29.83 in 10.0 mi South 15.0 mph 20.7 mph N/A   Overcast
1:35 AM 48.2 °F - 48.2 °F 100% 29.83 in 10.0 mi South 13.8 mph - N/A   Overcast
1:55 AM 48.2 °F - 48.2 °F 100% 29.83 in 7.0 mi SSW 11.5 mph - N/A Rain Light Rain
2:15 AM 48.2 °F - 48.2 °F 100% 29.83 in 7.0 mi SSW 11.5 mph - N/A   Overcast
2:35 AM 48.2 °F - 48.2 °F 100% 29.83 in 10.0 mi South 13.8 mph - N/A   Overcast
2:55 AM 48.2 °F - 48.2 °F 100% 29.83 in 7.0 mi South 11.5 mph - N/A   Overcast
3:15 AM 48.2 °F - 48.2 °F 100% 29.83 in 7.0 mi South 11.5 mph - N/A   Overcast
3:35 AM 48.2 °F - 48.2 °F 100% 29.83 in 7.0 mi South 11.5 mph - N/A   Overcast
3:55 AM 48.2 °F - 48.2 °F 100% 29.83 in 7.0 mi SSW 11.5 mph - N/A   Overcast
4:15 AM 48.2 °F - 48.2 °F 100% 29.84 in 7.0 mi SSW 10.4 mph - N/A   Overcast
4:35 AM 48.2 °F - 48.2 °F 100% 29.84 in 7.0 mi SSW 9.2 mph - N/A   Overcast
4:55 AM 48.2 °F - 48.2 °F 100% 29.85 in 3.0 mi SSW 9.2 mph - N/A   Overcast
5:15 AM 48.2 °F - 48.2 °F 100% 29.85 in 2.0 mi SW 8.1 mph - N/A   Overcast
5:55 AM 48.2 °F - 48.2 °F 100% 29.87 in 0.8 mi WNW 4.6 mph - N/A Rain Light Rain
6:15 AM 48.2 °F - 48.2 °F 100% 29.88 in 0.2 mi WNW 4.6 mph - N/A Fog Fog
6:35 AM 48.2 °F - 48.2 °F 100% 29.89 in 1.5 mi West 5.8 mph - N/A   Overcast
6:55 AM 48.2 °F - 48.2 °F 100% 29.89 in 1.0 mi West 3.5 mph - N/A   Overcast
7:15 AM 46.4 °F - 46.4 °F 100% 29.90 in 1.8 mi Calm Calm - N/A   Overcast
7:35 AM 48.2 °F - 48.2 °F 100% 29.90 in 2.5 mi West 3.5 mph - N/A   Overcast
7:55 AM 46.4 °F 44.3 °F 46.4 °F 100% 29.91 in 1.8 mi WNW 4.6 mph - N/A   Overcast
8:15 AM 46.4 °F 44.3 °F 46.4 °F 100% 29.91 in 1.2 mi WNW 4.6 mph - N/A   Overcast
8:35 AM 46.4 °F 44.3 °F 46.4 °F 100% 29.92 in 0.2 mi WNW 4.6 mph - N/A Fog Fog
8:55 AM 44.6 °F 43.1 °F 44.6 °F 100% 29.92 in 0.2 mi NW 3.5 mph - N/A Fog Fog
9:15 AM 42.8 °F 41.1 °F 42.8 °F 100% 29.92 in 0.2 mi WNW 3.5 mph - N/A Fog Fog
9:35 AM 42.8 °F 41.1 °F 42.8 °F 100% 29.93 in 0.2 mi North 3.5 mph - N/A Fog Fog
9:55 AM 42.8 °F 40.1 °F 42.8 °F 100% 29.93 in 0.2 mi NNE 4.6 mph - N/A Fog Fog
10:15 AM 42.8 °F 40.1 °F 42.8 °F 100% 29.94 in 0.2 mi NNE 4.6 mph - N/A Fog Fog
10:35 AM 42.8 °F 40.1 °F 42.8 °F 100% 29.94 in 0.2 mi NNE 4.6 mph - N/A Fog Fog
10:55 AM 42.8 °F 41.1 °F 42.8 °F 100% 29.93 in 0.8 mi NNE 3.5 mph - N/A   Overcast
11:15 AM 42.8 °F 41.1 °F 42.8 °F 100% 29.93 in 1.0 mi NE 3.5 mph - N/A   Overcast
11:35 AM 42.8 °F - 42.8 °F 100% 29.93 in 1.0 mi Calm Calm - N/A   Overcast
11:55 AM 44.6 °F 43.1 °F 44.6 °F 100% 29.92 in 0.8 mi East 3.5 mph - N/A   Overcast
12:15 PM 44.6 °F 43.1 °F 44.6 °F 100% 29.91 in 0.8 mi ENE 3.5 mph - N/A   Overcast
12:35 PM 42.8 °F 40.1 °F 42.8 °F 100% 29.90 in 0.2 mi ENE 4.6 mph - N/A Fog Fog
12:55 PM 44.6 °F 42.2 °F 44.6 °F 100% 29.89 in 0.2 mi East 4.6 mph - N/A Fog Fog
1:15 PM 44.6 °F 42.2 °F 44.6 °F 100% 29.88 in 0.2 mi ENE 4.6 mph - N/A Fog Fog
1:35 PM 44.6 °F 42.2 °F 44.6 °F 100% 29.87 in 0.2 mi ENE 4.6 mph - N/A Fog Fog
1:55 PM 44.6 °F 43.1 °F 44.6 °F 100% 29.87 in 0.2 mi East 3.5 mph - N/A Fog Fog
2:15 PM 44.6 °F 42.2 °F 44.6 °F 100% 29.87 in 0.2 mi East 4.6 mph - N/A Fog Fog
2:35 PM 44.6 °F 41.4 °F 44.6 °F 100% 29.86 in 0.2 mi ENE 5.8 mph - N/A Fog Fog
2:55 PM 44.6 °F 41.4 °F 44.6 °F 100% 29.86 in 0.2 mi East 5.8 mph - N/A Fog Fog
3:15 PM 44.6 °F 40.7 °F 44.6 °F 100% 29.85 in 0.2 mi East 6.9 mph - N/A Fog Fog
3:35 PM 44.6 °F 40.2 °F 44.6 °F 100% 29.84 in 0.2 mi ENE 8.1 mph - N/A Fog Fog
3:55 PM 46.4 °F 43.5 °F 46.4 °F 100% 29.84 in 0.2 mi East 5.8 mph - N/A Fog Fog
4:15 PM 46.4 °F 42.9 °F 46.4 °F 100% 29.84 in 0.2 mi East 6.9 mph - N/A Fog Fog
4:35 PM 46.4 °F 43.5 °F 46.4 °F 100% 29.83 in 0.2 mi East 5.8 mph - N/A Fog Fog
4:55 PM 46.4 °F 43.5 °F 46.4 °F 100% 29.83 in 0.2 mi East 5.8 mph - N/A Fog Fog
5:15 PM 46.4 °F 43.5 °F 46.4 °F 100% 29.82 in 0.2 mi East 5.8 mph - N/A Fog Fog
5:35 PM 46.4 °F 42.4 °F 46.4 °F 100% 29.82 in 0.2 mi East 8.1 mph - N/A Fog Fog
5:55 PM 46.4 °F 42.4 °F 46.4 °F 100% 29.82 in 0.2 mi East 8.1 mph - N/A Fog Fog
6:15 PM 46.4 °F 42.4 °F 46.4 °F 100% 29.82 in 0.2 mi East 8.1 mph - N/A Fog Fog
6:35 PM 48.2 °F - 48.2 °F 100% 29.81 in 0.2 mi East 8.1 mph - N/A Fog Fog
6:55 PM 48.2 °F - 48.2 °F 100% 29.81 in 0.2 mi East 6.9 mph - N/A Fog Fog
7:15 PM 48.2 °F - 48.2 °F 100% 29.80 in 0.2 mi East 10.4 mph - N/A Fog Fog
7:35 PM 48.2 °F - 48.2 °F 100% 29.80 in 0.2 mi ESE 8.1 mph - N/A Fog Fog
7:55 PM 48.2 °F - 48.2 °F 100% 29.79 in 0.2 mi ESE 8.1 mph - N/A Fog Fog
8:15 PM 51.8 °F - 51.8 °F 100% 29.78 in 3.0 mi SE 5.8 mph - N/A   Mostly Cloudy
8:35 PM 51.8 °F - 51.8 °F 100% 29.77 in 3.0 mi SSE 8.1 mph - N/A   Mostly Cloudy
8:55 PM 51.8 °F - 51.8 °F 100% 29.77 in 4.0 mi SSE 6.9 mph - N/A   Mostly Cloudy
9:15 PM 51.8 °F - 51.8 °F 100% 29.76 in 4.0 mi SSE 10.4 mph - N/A   Mostly Cloudy
9:35 PM 53.6 °F - 53.6 °F 100% 29.76 in 7.0 mi SSE 12.7 mph - N/A   Mostly Cloudy
9:55 PM 53.6 °F - 53.6 °F 100% 29.75 in 7.0 mi SSE 11.5 mph - N/A   Mostly Cloudy
10:15 PM 53.6 °F - 53.6 °F 100% 29.74 in 7.0 mi South 11.5 mph - N/A   Overcast
10:35 PM 53.6 °F - 53.6 °F 100% 29.73 in 7.0 mi SSE 11.5 mph - N/A   Mostly Cloudy
10:55 PM 53.6 °F - 53.6 °F 100% 29.73 in 7.0 mi South 9.2 mph - N/A   Mostly Cloudy
11:15 PM 53.6 °F - 53.6 °F 100% 29.72 in 10.0 mi South 8.1 mph - N/A   Scattered Clouds
11:35 PM 53.6 °F - 53.6 °F 100% 29.72 in 10.0 mi South 8.1 mph - N/A   Clear
11:55 PM 53.6 °F - 53.6 °F 100% 29.72 in 10.0 mi South 10.4 mph - N/A   Clear